STARLINK-1788

operational
NORAD ID: 46689 Int'l Des: 2020-073 Owner: SPXS Country: US Constellation: starlink
LEOCIRCULARSTARLINK_TYPE

About STARLINK-1788

Description loading...

Live Position

Loading 3D Globe...

Upcoming Passes

Altitude History

Altitude vs Time

uPlot chart will show altitude changes over time

Two-Line Element Set

1 46689U 20073V 25251.55790660 .00004568 00000-0 32538-3 0 9995
2 46689 53.0560 354.8949 0001357 80.6209 279.4933 15.06395527270703
Epoch: Sep 8, 2025 • Age: 14 hours

Current Status

Altitude 566.3 km
Velocity 7.58 km/s
Sub-Earth Point -52.39°S, 149.27°W
Launch Date Oct 18, 2020
Age 4.8 years
Type internet

Technical Details

Classification Payload
Mass 260.00 kg
Dry Mass 248.00 kg
Total Mass 260.00 kg
Length 0.20 m
Diameter 2.80 m
Span 9.00 m
Shape Box + pan
Manufacturer SPXS
Bus Type Starlink
Phase Status In Orbit
Owner/State SPXS/US

Large Constellations

Loading constellations...